Location: Nashville
(36.1660°N, 86.7840°W)
Time: 13:25:36
(UTC-06:00)

Vanguard 1 - All Passes

Search period start: 25 January 2022 00:00
Search period end: 04 February 2022 00:00
Orbit: 652 x 3830 km, 34.2° (Epoch: 24 January)

Date Brightness Start Highest point End Pass type
(mag) Time Alt. Az. Time Alt. Az. Time Alt. Az.
25 Jan - 06:05:50 10° S 06:12:29 14° SSE 06:17:41 10° ESE visible
25 Jan - 08:24:36 10° SW 08:34:48 36° SSE 08:40:53 10° E daylight
25 Jan - 10:47:55 10° WSW 10:55:35 67° S 11:00:26 10° E daylight
25 Jan - 13:10:30 10° W 13:15:33 60° SSW 13:19:54 10° ESE daylight
25 Jan - 15:31:55 10° WSW 15:35:07 19° SSW 15:38:46 10° SSE daylight
26 Jan - 06:23:58 10° SSW 06:33:46 21° SSE 06:40:33 10° ESE visible
26 Jan - 08:45:14 10° SW 08:55:50 46° SSE 09:01:55 10° E daylight
26 Jan - 11:09:08 10° W 11:16:29 73° S 11:21:15 10° E daylight
26 Jan - 13:31:34 10° W 13:36:20 48° SSW 13:40:37 10° ESE daylight
26 Jan - 15:54:02 10° SW 15:55:56 12° SSW 15:57:58 10° S daylight
27 Jan - 06:43:17 10° SSW 06:55:00 28° SSE 07:02:25 10° E daylight
27 Jan - 09:06:11 10° WSW 09:16:49 56° SSE 09:22:49 10° E daylight
27 Jan - 11:30:21 10° W 11:37:23 75° S 11:42:03 10° E daylight
27 Jan - 13:52:41 10° W 13:57:05 35° SSW 14:01:11 10° SE daylight
28 Jan - 04:45:48 10° S 04:52:56 14° SSE 04:58:46 10° ESE visible
28 Jan - 07:03:15 10° SW 07:16:10 36° SSE 07:23:48 10° E daylight
28 Jan - 09:27:21 10° WSW 09:37:49 65° SSE 09:43:39 10° E daylight
28 Jan - 11:51:35 10° W 11:58:16 70° S 12:02:50 10° ESE daylight
28 Jan - 14:13:58 10° W 14:17:47 25° SSW 14:21:28 10° SSE daylight
29 Jan - 05:03:02 10° S 05:14:17 20° SSE 05:22:25 10° ESE visible
29 Jan - 07:23:42 10° SW 07:37:19 44° SSE 07:44:56 10° E daylight
29 Jan - 09:48:40 10° WSW 09:58:46 73° S 10:04:27 10° E daylight
29 Jan - 12:12:48 10° W 12:19:06 61° SSW 12:23:34 10° ESE daylight
29 Jan - 14:35:36 10° WSW 14:38:27 16° SSW 14:41:16 10° S daylight
30 Jan - 05:21:49 10° SSW 05:35:35 27° SSE 05:44:41 10° E visible
30 Jan - 07:44:33 10° SW 07:58:24 54° SSE 08:05:56 10° E daylight
30 Jan - 10:10:03 10° W 10:19:44 77° S 10:25:15 10° E daylight
30 Jan - 12:34:00 10° W 12:39:52 48° SSW 12:44:12 10° SE daylight
31 Jan - 03:27:03 10° SSE 03:32:46 12° SE 03:37:51 10° SE visible
31 Jan - 05:41:25 10° SSW 05:56:50 34° SSE 06:06:20 10° E visible
31 Jan - 08:05:40 10° WSW 08:19:29 63° SSE 08:26:48 10° E daylight
31 Jan - 10:31:27 10° W 10:40:41 77° S 10:46:01 10° E daylight
31 Jan - 12:55:16 10° W 13:00:33 36° SSW 13:04:40 10° SE daylight
01 Feb - 03:42:31 10° S 03:54:09 18° SE 04:03:14 10° ESE visible
01 Feb - 06:01:35 10° SW 06:18:03 43° SSE 06:27:39 10° E visible
01 Feb - 08:27:00 10° WSW 08:40:32 71° S 08:47:39 10° E daylight
01 Feb - 10:52:51 10° W 11:01:36 73° S 11:06:47 10° ESE daylight
01 Feb - 13:16:41 10° W 13:21:10 25° SSW 13:24:52 10° SSE daylight
02 Feb - 04:00:33 10° S 04:15:27 25° SE 04:26:09 10° E visible
02 Feb - 06:22:11 10° SW 06:39:14 51° SSE 06:48:44 10° E visible
02 Feb - 08:48:29 10° WSW 09:01:35 77° S 09:08:28 10° E daylight
02 Feb - 11:14:13 10° W 11:22:27 63° SSW 11:27:29 10° ESE daylight
02 Feb - 13:38:30 10° WSW 13:41:42 16° SW 13:44:32 10° S daylight
03 Feb - 04:19:38 10° SSW 04:36:43 32° SSE 04:48:12 10° E visible
03 Feb - 06:43:09 10° SW 07:00:24 60° SSE 07:09:43 10° E daylight
03 Feb - 09:10:03 10° W 09:22:37 80° S 09:29:15 10° E daylight
03 Feb - 11:35:35 10° W 11:43:14 51° SSW 11:48:04 10° SE daylight
